Вернуться в каталог

KUIPER-00558

АктивенСвязьLEO
NORAD 69765·PAYLOAD·🇺🇸 United States

Запущен Jul 2, 2026 с Cape Canaveral Space Force Station

Loading…

Ближайшие Пролёты (ближайшие 24 часа)

TLE

СвежийSource: CelesTrak SupGP

Эпоха: Sep 14, 2026, 22:26 UTC

1 69765C 26151C   26257.93513889  .00001675  00000+0  21924-3 0  2572
2 69765  51.8966 258.7964 0000572  68.6366 130.5689 14.79927180    11

Отслеживайте KUIPER-00558 в реальном времени с AllMySat

Download on the App Store